Starlink 34853

operational
NORAD ID: 65892 Int'l Des: 2025-224 Owner: SPXS Country: US Constellation: starlink
LEOCIRCULAR

About Starlink 34853

Description loading...

Live Position

Loading 3D Globe...

Upcoming Passes

Altitude History

Altitude vs Time

uPlot chart will show altitude changes over time

Two-Line Element Set

1 65892U 25224L 25310.73825446 .00119046 00000-0 21174-2 0 9993
2 65892 53.1602 223.6007 0002446 99.1790 260.9495 15.49289071 5961
Epoch: Nov 6, 2025 • Age: 11 hours

Current Status

Altitude 434.0 km
Velocity 7.65 km/s
Sub-Earth Point -41.91°S, 68.21°E
Launch Date Oct 7, 2025
Age 30 days
Type internet

Technical Details

Classification Payload
Mass 575.00 kg
Dry Mass 530.00 kg
Total Mass 575.00 kg
Length 0.30 m
Diameter 4.10 m
Span 29.00 m
Shape Box + pan
Manufacturer SPXS
Bus Type Starlink V2MO
Phase Status In Orbit
Owner/State SPXS/US

Large Constellations

Loading constellations...